GFSSE_925_rhum_222.txt.gz
RH
59 44 50 51 54 55 66 62 57 56 56 54 58 62 58 44 47 54 59 68 77 80 77 69 73 79 69 60 61 65 64 66 67 65 60 68 74 80 80 78 82 89 90
54 45 49 51 54 57 74 71 62 61 59 55 61 63 62 51 49 55 65 72 81 93 90 79 86 84 74 75 76 72 66 56 58 62 62 68 71 82 83 77 74 93 83
60 51 52 51 56 59 67 77 66 64 63 62 62 63 64 55 50 51 68 81 86 96 90 86 87 93 75 75 76 73 65 54 52 63 66 72 80 82 79 77 80 87 90
65 62 61 53 56 59 65 74 71 68 66 67 68 68 64 58 51 50 62 75 86 96 91 76 90 90 82 78 77 72 65 54 48 52 57 67 84 89 81 77 80 81 82
59 71 79 53 55 59 63 72 74 72 72 71 70 71 67 60 50 44 47 54 68 88 92 93 94 92 91 79 78 73 65 46 44 49 56 57 78 82 77 78 84 86 94
50 66 70 55 53 55 56 62 71 73 75 70 71 74 69 60 50 44 46 55 71 90 94 96 92 93 78 78 79 74 66 50 49 45 51 56 73 81 79 80 81 84 86
51 64 67 56 52 51 58 60 63 70 71 67 72 72 68 59 49 46 50 58 72 82 92 92 91 96 84 79 79 76 69 51 50 49 47 64 69 90 82 84 83 82 88
61 71 72 64 54 51 51 59 62 68 68 71 72 70 63 54 48 47 54 67 77 85 92 96 92 92 81 84 79 78 72 50 46 40 54 64 69 92 86 84 87 83 86
59 77 87 74 60 57 53 52 55 60 67 72 73 66 53 51 52 53 57 74 78 88 97 91 75 75 100 88 79 83 75 50 44 43 58 62 64 88 92 89 88 88 88
58 74 89 94 71 66 65 59 55 54 58 62 58 51 50 54 60 64 72 81 83 94 91 86 72 71 97 100 78 84 76 47 40 44 48 60 56 82 92 92 93 91 91
61 70 83 91 94 92 90 74 68 64 60 58 59 58 56 60 68 86 83 90 88 93 86 78 80 74 83 92 81 86 74 45 42 43 55 60 64 88 90 93 96 96 98
62 65 82 88 88 90 82 85 75 75 70 67 68 67 66 73 78 85 86 82 87 92 87 73 97 88 71 74 83 85 71 49 50 55 58 61 53 84 87 88 92 93 95
57 64 68 80 87 84 78 77 79 86 86 87 84 82 73 76 69 78 85 90 93 90 91 80 100 91 77 88 80 79 68 49 49 56 58 62 58 85 87 88 88 90 92
53 58 63 72 80 84 78 77 75 80 80 78 77 76 80 69 69 78 78 76 83 84 88 86 92 87 86 73 72 66 63 53 48 57 56 63 62 82 83 84 87 87 90
35 47 58 64 73 82 77 74 68 71 72 77 75 73 73 75 65 79 83 94 92 81 88 81 82 81 80 74 67 63 60 56 48 56 57 64 63 80 83 85 85 84 87
39 39 48 61 68 72 73 74 73 59 61 63 64 69 70 72 73 84 77 88 92 86 84 74 72 72 72 69 62 56 57 56 52 56 63 69 63 76 85 86 83 84 85
52 46 47 55 65 72 77 74 70 74 66 63 61 63 72 70 73 77 81 82 87 77 76 68 65 62 64 59 55 57 58 56 53 46 66 72 70 75 79 82 84 85 84
65 72 71 72 72 73 78 86 84 78 78 78 71 68 68 70 70 70 82 83 75 74 72 68 61 59 58 56 53 55 58 56 53 49 63 74 74 73 78 81 84 85 85
55 61 69 70 70 73 71 80 87 86 84 82 80 80 84 83 76 76 80 82 82 77 72 70 67 62 58 56 54 51 52 56 53 51 50 73 75 73 75 80 78 82 87
46 50 56 61 61 70 78 83 86 88 82 86 86 86 87 90 87 85 78 74 77 80 77 73 74 67 60 56 52 49 49 53 51 51 50 55 73 73 76 75 77 82 86
39 39 43 48 48 48 56 64 68 72 77 77 74 85 87 89 90 90 89 83 82 82 83 82 82 73 65 59 54 50 48 49 50 48 50 52 73 71 73 77 74 79 80
40 38 38 42 46 50 50 47 54 62 72 75 79 76 85 89 89 89 92 97 91 84 98 94 89 82 71 64 60 53 60 56 52 49 49 53 56 73 69 77 77 76 78
36 36 36 38 40 45 48 45 47 46 52 59 66 65 75 82 82 95 98 99 97 93 100 97 98 94 86 75 65 59 71 66 61 54 53 53 55 67 69 78 78 70 76
37 39 39 37 34 37 43 45 46 46 46 46 47 49 55 61 65 73 80 91 100 100 100 94 98 100 95 90 83 74 60 53 70 72 57 57 56 59 64 71 74 66 71
35 35 36 37 35 31 31 38 42 46 47 47 46 48 53 53 56 59 66 81 88 93 91 100 100 100 100 96 92 83 76 78 82 88 83 62 59 60 63 62 68 65 63
28 28 30 30 28 28 31 32 36 42 48 51 50 50 51 51 53 57 64 74 78 80 87 86 94 99 100 99 95 94 84 82 82 87 95 82 70 64 74 69 74 72 61

GFSSE_925_rhum_228.txt.gz
RH
58 48 49 47 48 48 52 47 45 43 43 41 41 36 32 30 31 41 49 47 49 54 61 61 60 56 55 61 59 54 57 59 58 69 85 91 96 88 89 72 87 90 88
38 45 49 45 48 50 54 50 49 46 46 46 45 40 36 35 35 38 44 49 57 57 55 61 59 58 68 64 52 52 64 72 81 76 73 82 80 79 79 80 77 85 89
34 44 50 42 48 52 54 53 54 51 48 50 50 46 42 39 39 44 50 53 55 57 59 62 63 61 66 63 56 54 67 75 90 86 79 74 77 75 73 78 80 82 84
36 48 48 44 46 54 57 56 57 56 53 54 53 52 48 46 46 50 54 57 62 70 77 78 59 60 62 64 60 61 60 61 68 72 81 76 75 74 72 73 72 73 75
47 50 47 44 43 51 57 57 60 59 59 59 58 57 53 49 47 52 60 62 64 64 73 97 69 56 57 62 62 65 58 58 64 64 69 76 72 74 72 72 73 72 73
50 51 47 44 45 51 57 61 64 63 64 63 65 63 59 53 47 48 52 56 57 63 78 95 80 56 56 58 60 65 62 60 60 75 80 75 67 73 70 77 74 72 74
55 54 50 49 48 52 58 66 67 66 68 66 65 67 64 58 49 45 47 50 54 57 72 76 90 66 58 57 58 62 65 67 60 60 74 72 67 67 64 78 77 74 72
60 61 55 53 50 51 58 70 70 71 73 72 68 72 69 64 54 45 46 51 57 67 76 76 78 62 58 60 59 61 63 64 57 58 63 64 58 50 62 72 78 78 76
64 66 59 58 55 52 55 67 72 74 78 76 72 77 73 66 55 47 46 52 60 70 78 83 80 77 58 59 60 64 68 74 63 64 68 63 58 32 40 68 74 80 80
66 66 58 58 56 62 65 65 69 77 84 82 81 83 78 72 56 48 49 55 66 72 77 81 83 79 70 55 56 61 69 87 73 53 62 66 53 46 47 43 80 75 81
73 72 71 62 58 58 66 75 76 80 80 82 85 85 82 67 54 51 53 57 68 76 78 83 82 77 75 72 56 60 65 82 77 51 63 67 55 61 52 41 57 76 82
89 85 78 74 70 65 64 64 68 72 74 75 78 79 71 62 57 52 54 60 70 75 81 86 89 78 92 76 61 63 68 78 78 54 65 62 59 63 51 43 30 74 88
82 84 82 75 73 69 68 64 62 61 60 58 57 58 56 58 58 59 59 66 76 83 85 85 91 89 72 77 64 66 65 79 84 61 63 64 65 67 51 48 41 70 95
88 82 81 74 73 73 70 71 70 68 65 62 63 63 61 59 61 62 74 78 79 83 80 76 78 83 86 77 68 66 66 70 83 71 64 67 68 71 57 53 50 39 90
80 79 78 79 76 76 86 87 86 81 76 72 74 72 68 66 64 62 71 80 83 84 81 75 71 80 83 85 79 71 69 67 74 78 64 68 68 70 66 62 64 80 94
66 78 77 79 75 71 78 87 85 90 86 85 82 80 78 76 74 68 64 72 82 84 82 77 74 78 80 83 79 75 71 73 72 71 64 65 69 71 68 73 77 94 92
78 71 81 82 80 78 78 76 76 83 85 85 85 86 82 77 74 75 74 73 82 82 82 84 87 87 84 87 82 78 74 76 76 74 66 63 69 78 68 74 70 92 93
76 81 83 90 84 82 81 78 83 83 82 85 83 81 77 82 80 72 75 74 75 80 83 87 87 90 93 90 82 77 72 71 74 71 66 64 63 68 74 77 77 77 91
72 85 95 89 85 84 81 83 83 79 75 78 78 77 78 80 85 85 80 79 83 83 85 88 92 96 98 94 90 89 74 68 64 67 66 65 64 63 64 71 80 74 81
51 59 82 85 85 85 83 80 76 76 72 69 69 71 75 81 84 81 80 82 82 83 85 92 95 90 96 93 89 86 79 68 66 61 64 61 61 64 64 67 74 81 81
44 44 46 62 58 60 70 78 62 55 67 62 68 67 64 67 62 78 85 84 87 89 86 92 96 99 100 94 94 85 80 72 69 63 64 61 61 60 64 66 67 75 79
43 42 38 36 41 45 46 46 42 46 48 60 59 71 57 51 51 51 61 74 80 90 98 99 100 100 100 99 96 93 95 81 67 66 67 69 63 62 70 70 72 73 77
39 38 41 41 36 32 32 31 30 28 30 32 37 41 43 50 67 65 59 58 63 64 73 89 97 98 98 92 92 98 98 97 86 70 62 66 73 73 73 77 75 76 75
41 38 37 36 38 34 32 32 37 43 46 44 48 47 43 39 42 48 47 57 69 76 84 86 88 92 93 98 96 94 100 95 90 89 66 66 70 74 79 80 79 78 79
34 30 34 29 29 30 29 30 32 34 35 34 35 41 44 52 54 50 52 59 59 63 69 72 73 84 85 94 99 98 96 98 99 96 91 79 68 74 78 75 76 80 84
33 31 31 28 25 23 23 24 26 30 37 37 36 37 42 44 50 60 58 67 78 75 76 76 71 76 81 85 86 87 97 98 95 98 99 93 90 77 78 84 89 90 89

GFSSE_925_rhum_231.txt.gz
RH
50 55 54 52 52 46 44 41 41 39 40 36 30 27 26 30 45 56 58 56 58 59 59 58 53 52 59 62 60 60 63 80 85 82 89 94 93 79 72 77 82 82 76
34 53 53 54 53 50 47 44 44 43 42 40 35 33 32 36 44 48 49 51 55 61 69 62 59 66 65 58 62 67 76 77 78 74 78 80 75 75 76 73 78 77 76
36 53 57 57 54 54 49 48 47 47 45 44 42 41 42 44 46 52 55 61 62 64 62 56 60 69 67 58 61 69 80 84 83 81 77 78 78 74 75 75 74 78 82
40 56 56 54 54 54 51 51 51 50 50 49 46 44 43 46 52 55 55 56 56 54 62 62 60 64 67 64 60 61 70 74 67 76 79 73 76 75 72 72 72 71 71
46 54 53 54 55 54 54 54 54 55 55 56 53 51 48 46 47 54 61 64 67 70 93 94 58 58 66 69 66 67 64 59 62 64 73 72 77 72 71 73 73 71 74
55 54 53 56 56 56 56 57 58 58 58 60 59 57 53 50 47 47 53 58 59 66 90 97 73 59 59 69 71 71 64 61 58 62 71 74 71 70 65 73 74 72 75
53 57 56 56 56 57 57 59 62 63 65 65 63 64 60 56 53 50 46 50 53 64 82 93 93 59 58 64 73 79 71 64 60 74 74 72 71 70 56 62 74 75 74
50 60 60 63 60 59 60 62 67 68 69 70 70 72 68 63 56 50 49 50 53 58 69 79 78 68 60 58 67 82 78 76 59 63 75 68 70 70 65 61 75 76 75
58 61 67 71 68 68 67 71 73 75 73 76 75 74 73 69 62 53 51 53 56 60 67 74 80 81 68 63 61 76 79 81 67 64 69 68 64 66 61 50 64 76 77
71 69 65 69 68 64 80 81 76 79 81 79 76 78 80 75 69 59 55 58 62 65 68 72 80 80 73 69 66 66 84 82 83 62 61 68 68 53 65 54 46 56 80
82 73 68 69 67 64 62 65 66 76 84 84 82 82 80 75 67 58 55 57 64 73 76 77 79 76 73 68 59 58 88 80 87 73 53 64 68 57 84 67 55 54 71
86 79 68 62 65 67 66 69 70 70 72 75 77 79 78 73 61 53 52 58 66 72 74 78 83 85 76 67 60 57 64 76 86 83 56 62 69 63 84 80 54 50 67
76 79 76 71 65 61 61 64 70 73 73 69 68 71 70 63 58 54 54 57 66 75 81 83 84 85 86 84 70 61 65 70 78 86 65 64 66 68 83 66 59 52 65
85 77 76 76 70 67 66 65 66 64 60 60 60 64 64 60 59 56 54 52 62 67 73 82 81 79 77 77 79 79 69 72 74 85 81 63 67 72 97 75 66 68 74
82 80 75 74 69 69 75 72 72 71 70 70 70 71 71 70 69 68 64 62 63 74 80 81 80 78 79 77 80 83 83 72 73 82 86 72 66 68 91 98 91 75 79
85 81 79 78 76 74 75 85 84 86 87 85 85 85 80 75 74 75 74 72 74 78 81 85 84 80 78 80 83 83 83 77 71 77 80 80 71 69 71 91 98 98 98
74 81 84 82 87 87 87 93 91 86 78 91 90 85 85 86 81 78 78 76 73 72 77 85 90 92 88 86 86 83 85 79 74 69 77 80 73 72 72 74 91 94 98
69 67 86 86 85 89 88 88 91 86 84 84 82 81 81 80 91 94 91 87 83 83 84 91 96 97 94 94 89 84 84 83 80 74 67 71 77 70 72 76 81 86 91
78 72 90 90 85 90 86 88 88 88 86 87 85 83 86 87 89 93 96 98 100 100 98 97 99 100 100 99 98 95 91 88 86 82 74 66 63 70 65 67 75 81 83
94 96 96 94 91 87 83 82 80 80 79 75 74 75 76 73 70 78 84 92 97 100 100 100 100 100 100 100 100 100 98 93 91 90 84 72 66 68 66 62 65 77 79
84 91 92 89 83 81 87 74 58 57 60 65 68 74 54 51 57 66 62 59 58 59 75 96 89 88 92 87 100 96 97 93 87 84 82 80 82 71 69 69 66 70 77
57 61 58 57 59 61 56 43 43 43 35 37 35 35 37 39 46 55 53 49 46 65 75 70 81 88 83 83 94 92 91 84 83 81 83 82 83 76 74 76 71 74 74
44 41 37 36 35 34 33 32 33 35 34 34 35 39 45 48 50 49 49 49 57 67 66 78 92 84 88 87 87 89 90 94 90 73 69 76 78 81 87 88 84 81 80
42 41 42 38 32 30 28 26 28 33 36 38 36 34 35 37 47 56 56 55 61 72 81 82 76 77 82 97 94 91 95 95 93 87 73 72 71 84 83 87 83 82 82
41 38 32 30 29 27 25 24 24 28 34 37 38 38 42 48 49 51 53 53 57 66 65 66 66 72 80 93 98 100 99 94 86 92 91 78 78 77 79 81 81 81 88
38 33 30 26 25 24 23 26 27 29 36 40 41 44 46 48 48 45 42 42 47 50 39 30 35 60 75 80 82 82 96 97 97 97 95 90 89 84 88 87 93 90 91

GFSSE_925_rhum_237.txt.gz
RH
67 65 52 54 53 45 38 37 44 54 55 58 55 61 82 93 69 68 69 76 75 76 75 75 88 97 96 96 83 84 82 80 77 82 90 83 71 72 73 73 84 80 73
58 83 59 54 55 45 39 36 41 48 53 51 51 60 61 62 64 66 72 73 73 83 78 88 95 89 67 64 73 72 71 72 73 75 77 74 71 67 74 78 85 84 72
51 74 64 56 55 48 43 39 36 35 36 36 42 51 56 61 64 65 68 78 91 94 97 96 94 73 72 76 78 78 74 73 73 75 73 75 75 72 66 72 74 75 73
50 65 75 60 55 52 46 44 41 40 39 40 41 46 50 53 56 59 70 86 86 89 91 90 93 70 72 78 84 83 84 80 76 76 81 82 76 80 76 72 68 71 75
60 59 65 63 56 55 52 48 46 46 45 46 45 45 48 52 57 62 65 78 85 87 91 86 87 78 70 69 70 67 63 65 68 78 81 84 74 84 91 80 76 73 72
76 62 60 64 59 56 54 53 51 51 51 51 49 48 47 51 53 58 62 67 82 91 91 89 76 81 79 75 72 68 62 60 61 75 88 85 81 77 82 78 76 76 75
87 62 60 62 62 59 57 56 55 55 55 55 55 54 53 50 51 52 56 58 60 69 88 93 84 78 81 80 78 76 70 61 60 68 85 84 83 78 72 75 77 76 74
60 61 62 65 65 62 60 59 59 61 60 61 62 60 58 54 49 44 45 47 50 54 62 74 75 75 78 79 78 79 78 73 68 70 83 81 74 76 81 64 73 78 76
59 59 66 70 68 66 64 63 64 64 64 65 65 66 64 60 56 50 46 46 52 54 59 62 63 68 73 71 72 73 77 78 81 73 78 80 70 71 86 66 66 75 77
65 71 73 75 73 71 68 68 69 67 68 68 68 68 69 69 66 60 52 49 52 56 58 59 62 63 71 74 70 64 67 71 86 80 78 76 66 70 71 85 77 69 72
94 89 87 92 94 88 82 76 76 73 72 73 75 76 77 76 73 68 60 55 55 57 61 64 62 61 67 72 74 69 66 84 83 84 80 75 60 57 70 82 76 73 64
98 99 99 98 96 100 100 98 88 88 88 91 87 82 79 76 77 75 65 60 60 65 70 71 71 71 73 89 91 85 89 80 78 83 80 70 75 60 61 90 95 84 74
97 100 99 98 97 99 100 99 100 100 96 86 80 74 73 74 76 69 62 63 64 70 88 84 87 90 90 89 91 88 84 83 89 87 77 63 69 70 59 76 95 100 88
97 98 99 100 99 100 100 98 100 99 97 80 72 72 68 68 67 66 68 68 67 76 77 87 91 83 83 83 82 84 90 93 94 94 87 72 69 73 69 64 95 98 99
91 96 91 98 99 99 97 91 92 94 85 73 69 68 70 74 75 75 74 73 78 76 83 91 94 94 96 95 96 97 94 96 96 98 96 81 72 72 77 70 95 94 99
83 92 89 84 81 81 83 80 76 74 70 73 77 83 91 92 91 90 87 86 88 89 94 97 96 97 93 93 96 98 99 100 99 98 96 93 82 76 74 79 74 94 96
83 94 82 82 81 82 80 80 77 79 89 95 98 100 91 88 90 95 99 100 100 100 100 100 99 99 99 99 98 99 99 98 96 99 100 98 95 88 81 72 76 75 83
87 94 89 81 77 78 81 94 99 99 100 99 97 95 92 89 93 100 99 99 95 92 95 94 87 84 89 92 85 80 77 95 82 83 81 79 80 88 91 84 76 74 74
90 95 98 90 84 83 86 98 98 100 95 93 88 82 72 66 62 59 57 57 54 51 56 66 79 84 78 75 83 78 81 81 76 77 86 70 86 79 86 89 87 88 82
87 99 99 95 92 88 92 100 98 91 85 68 57 53 54 56 55 50 46 42 40 54 84 84 86 87 83 78 66 60 60 52 57 73 80 86 91 97 95 96 90 87 89
98 100 100 99 97 93 100 94 86 78 57 45 41 39 37 36 36 38 40 42 48 66 75 77 94 87 77 81 74 62 53 60 59 62 76 65 71 78 89 95 100 97 89
99 99 100 100 98 95 92 81 62 52 49 43 39 36 35 36 40 42 45 50 58 81 86 88 87 79 78 80 72 62 54 50 66 65 59 61 68 73 72 79 85 89 94
94 99 100 100 99 93 79 64 42 36 37 41 36 36 36 36 38 40 42 41 37 37 50 54 53 66 70 71 76 77 60 58 65 53 58 67 65 61 65 64 74 84 92
83 97 100 99 85 61 54 41 34 37 42 42 37 40 41 42 43 40 33 30 31 36 34 27 24 26 59 52 69 69 79 86 76 55 43 46 61 66 63 69 61 68 78
79 84 80 61 44 37 31 23 18 26 29 34 36 40 42 42 37 31 30 29 29 28 24 23 23 24 34 58 63 62 66 66 70 67 66 45 56 59 62 64 68 65 64
63 52 44 34 28 23 19 17 15 18 28 37 44 47 36 31 33 35 31 30 27 28 28 27 27 27 27 30 38 65 67 58 50 60 63 63 67 67 73 74 77 70 82

GFSSE_925_rhum_243.txt.gz
RH
34 58 46 47 61 72 73 70 66 50 36 52 64 61 52 67 80 84 82 83 84 88 95 89 90 96 86 74 73 74 72 72 58 58 59 61 87 80 76 78 67 73 77
39 58 47 47 59 70 71 68 60 42 44 56 63 60 57 70 77 80 79 78 73 92 95 86 71 75 74 69 67 62 64 62 54 69 72 61 54 69 71 75 69 78 74
42 56 55 45 49 66 68 65 49 48 49 53 52 51 57 62 64 69 66 69 70 87 85 70 63 66 68 71 70 67 66 61 56 58 64 66 63 57 65 72 73 75 73
44 54 62 44 43 51 60 57 53 52 44 43 40 48 54 56 60 63 71 75 83 94 93 78 63 63 69 72 72 64 60 60 57 63 58 42 56 50 58 67 65 64 77
45 48 64 43 42 45 53 54 49 43 36 39 40 46 51 52 55 65 74 75 78 88 97 79 63 62 68 70 61 56 52 50 50 58 43 48 49 59 56 69 78 70 62
47 47 56 45 41 43 50 46 38 36 37 40 42 45 47 49 56 65 76 84 86 88 91 78 71 68 66 64 64 61 55 50 56 57 51 56 60 50 52 57 55 58 64
46 55 55 48 44 42 41 38 37 40 42 43 44 45 46 50 54 61 72 86 86 86 85 74 71 72 72 71 70 68 65 55 50 47 46 46 65 53 54 50 55 64 69
48 70 74 53 49 46 44 44 44 47 48 48 51 53 54 55 57 59 64 68 74 86 86 81 68 66 67 66 65 64 60 56 62 47 44 42 57 53 58 55 50 57 63
56 72 80 77 60 53 51 51 52 53 56 56 58 59 59 57 57 54 52 54 59 66 76 76 71 67 66 62 60 58 55 52 53 44 47 41 58 60 55 65 59 56 62
67 70 79 80 81 80 70 60 61 62 66 69 70 66 63 59 56 50 48 48 52 59 63 66 69 68 65 66 64 62 59 54 64 49 45 49 53 57 52 60 79 67 62
68 68 74 77 80 81 80 81 71 73 73 74 76 72 68 74 72 68 73 70 48 56 60 62 63 63 60 60 72 64 60 70 51 49 45 50 54 57 63 60 67 80 75
61 66 72 71 76 76 67 82 88 89 88 85 82 81 80 63 61 64 71 54 49 51 54 54 55 52 55 72 75 68 70 56 58 52 49 55 58 62 60 66 68 67 79
57 65 82 71 73 73 60 81 77 84 80 76 69 76 68 68 69 65 67 73 77 71 75 74 74 75 64 59 62 68 71 70 60 52 52 57 61 66 68 64 67 69 82
52 66 75 70 80 77 62 84 85 90 89 78 65 71 69 74 69 64 54 60 66 63 61 63 62 68 72 74 76 77 75 75 74 72 67 70 71 72 72 75 70 73 83
49 63 77 88 95 92 89 83 71 70 91 83 63 69 64 64 66 65 65 64 66 66 67 70 72 76 78 78 74 74 76 74 72 72 73 73 77 78 81 76 76 73 75
45 61 74 87 97 98 80 74 85 77 75 75 62 65 74 78 83 77 78 75 76 77 78 78 81 82 81 84 83 83 80 79 76 73 74 73 76 78 80 78 79 79 81
41 57 71 86 96 96 81 90 84 75 64 62 63 72 83 87 90 84 86 89 89 90 92 86 83 80 76 62 61 61 64 61 54 54 62 58 50 56 69 73 79 80 84
39 51 69 73 84 88 78 80 67 63 63 64 77 91 93 97 94 97 89 89 86 82 72 64 56 43 37 38 36 36 35 34 34 38 34 31 35 44 44 50 78 83 85
36 47 62 68 75 78 72 71 69 70 80 90 97 98 99 96 95 88 73 69 58 50 45 45 40 43 45 42 41 39 37 36 37 34 35 36 41 45 48 50 59 63 60
33 44 59 65 71 74 79 80 83 92 93 92 90 87 87 78 68 58 55 53 43 39 43 56 58 53 51 44 46 41 35 34 31 38 38 42 42 38 44 45 47 44 43
32 45 58 64 70 80 88 97 92 83 79 82 82 79 67 57 51 42 39 45 44 48 60 58 51 43 39 40 38 31 26 25 27 28 40 35 33 39 39 44 45 43 44
37 48 57 62 78 94 90 84 76 69 68 64 64 57 51 51 49 45 45 47 49 48 53 52 46 37 29 31 33 35 31 26 24 27 27 33 27 40 37 31 39 41 41
45 51 55 60 84 97 87 78 78 71 60 57 56 53 48 49 49 51 50 48 47 38 39 42 40 35 31 31 30 31 33 34 36 30 29 28 31 32 32 31 33 35 39
46 52 68 70 86 87 86 83 76 66 57 52 48 41 47 50 50 50 48 47 43 36 38 33 33 43 36 33 33 30 34 36 39 40 30 28 29 30 31 33 34 36 38
46 54 77 81 86 83 84 77 71 62 53 45 39 47 47 51 50 46 45 45 42 34 40 42 43 43 41 38 36 38 38 38 36 38 42 34 32 32 33 34 35 36 36
46 58 67 82 86 84 83 70 67 54 44 41 40 45 48 47 44 43 41 42 40 42 42 44 47 48 46 49 49 45 41 40 39 42 46 45 42 39 36 36 36 36 35

GFSSE_925_rhum_246.txt.gz
RH
59 41 43 50 58 72 67 64 60 37 48 57 52 43 55 77 79 80 80 82 82 86 82 76 75 72 67 64 59 58 49 53 66 60 57 49 53 66 73 69 76 79 71
57 44 43 52 59 68 66 65 57 36 50 59 54 47 56 68 75 74 70 67 75 92 72 60 66 65 60 57 58 58 51 55 69 75 59 44 39 53 68 69 71 72 72
59 44 44 52 58 64 66 65 48 40 52 57 56 52 58 66 69 63 60 62 69 69 66 63 64 64 64 62 58 54 49 50 63 72 77 76 44 39 52 59 67 68 76
59 56 43 48 57 62 66 60 45 48 51 49 50 53 58 59 59 59 62 65 74 71 64 62 62 64 65 66 58 51 46 43 56 57 60 68 64 39 58 68 62 64 82
54 60 42 41 49 57 60 52 51 49 38 38 45 53 57 57 61 66 64 66 86 92 80 63 59 62 62 57 53 50 44 53 53 54 50 48 63 38 36 71 82 72 62
48 58 42 40 40 46 51 53 51 40 34 35 44 53 57 60 68 74 78 83 80 91 89 69 64 62 63 62 59 56 50 45 48 56 54 51 57 42 34 42 47 51 56
44 55 43 41 41 43 46 50 45 33 36 40 46 55 57 61 66 68 74 83 83 84 80 66 63 62 62 61 60 56 53 45 55 50 46 52 57 52 40 39 45 52 56
55 57 44 43 42 44 43 47 40 37 43 50 53 53 57 55 54 58 62 68 73 70 74 64 59 57 56 53 52 50 48 44 40 55 46 54 58 55 46 47 48 51 57
64 68 47 47 44 43 43 42 43 46 52 55 59 62 55 48 45 45 44 45 49 55 62 57 55 56 58 57 53 52 49 44 42 49 48 48 54 55 53 48 55 57 54
72 71 60 59 50 48 47 48 51 57 61 64 66 62 56 52 48 45 43 44 45 49 54 55 56 55 52 52 54 55 53 50 57 54 48 51 53 53 52 52 56 63 67
72 76 77 78 72 61 61 59 64 66 67 68 68 64 61 59 52 49 50 66 45 45 49 50 51 47 44 49 64 66 64 55 66 55 51 51 51 53 56 52 58 61 64
69 79 81 82 80 80 76 75 70 72 71 70 70 67 62 74 73 77 72 65 47 44 45 44 42 42 46 60 76 69 69 71 61 56 52 50 53 56 58 59 59 64 69
64 69 78 82 80 80 70 75 73 89 84 81 81 80 58 76 71 70 67 60 54 54 54 51 61 65 70 74 73 77 74 65 66 66 69 65 69 70 70 71 70 68 65
58 64 69 78 80 77 72 74 80 84 85 81 80 76 67 72 66 67 65 68 70 69 67 72 74 70 73 66 71 70 72 71 70 71 68 70 69 78 79 75 77 76 74
53 61 75 70 77 72 72 78 79 79 79 75 76 70 63 69 64 59 66 65 66 66 66 69 69 70 71 77 74 74 77 76 74 73 73 72 75 72 70 63 72 80 79
49 60 71 70 80 78 84 82 77 77 79 77 78 67 63 67 70 69 68 71 73 75 76 77 81 78 76 76 70 67 66 65 61 60 60 64 61 59 63 70 58 62 76
46 62 72 78 85 87 86 78 76 72 80 74 68 62 60 73 72 70 79 73 78 80 80 79 75 71 65 64 61 53 59 43 42 39 40 42 36 36 42 52 73 79 81
43 62 70 78 88 93 85 81 81 77 72 69 68 69 80 76 76 86 81 78 80 80 74 63 50 43 42 41 40 39 38 38 36 38 36 35 40 43 46 45 64 59 53
41 58 68 73 89 94 86 84 78 72 68 65 66 78 78 79 88 83 79 80 73 57 46 46 47 48 50 47 44 42 40 38 38 33 32 42 42 36 36 44 45 45 45
38 55 67 73 83 89 84 80 74 64 70 84 87 87 90 91 83 74 65 60 45 40 49 56 58 54 50 45 46 36 35 28 25 28 37 33 33 35 36 41 38 40 41
36 52 69 71 76 82 81 75 72 86 89 91 90 87 85 77 64 54 50 48 44 51 62 57 51 41 37 35 34 36 27 31 34 29 28 30 33 33 39 34 32 36 37
36 50 64 68 75 80 81 78 88 90 87 85 83 79 68 57 49 41 42 46 50 56 56 52 44 38 32 31 33 33 55 36 36 30 32 30 34 30 30 30 32 31 34
31 44 60 64 73 80 75 89 85 82 77 76 75 64 53 51 46 45 48 50 41 40 49 42 40 38 38 35 33 36 56 57 46 36 35 32 31 30 32 33 34 34 33
36 39 53 61 76 81 80 87 79 74 71 65 61 56 50 50 51 51 50 47 40 38 39 36 42 42 39 40 38 37 38 43 64 65 39 38 37 37 36 36 35 36 38
41 44 50 59 84 88 82 83 77 74 63 59 58 50 50 52 51 50 48 47 40 38 42 44 45 47 46 46 48 49 49 45 44 56 62 52 46 43 41 40 39 37 39
45 47 54 68 91 94 83 84 79 75 61 57 51 50 52 52 50 47 46 44 40 42 44 46 48 50 51 52 53 56 54 55 55 56 66 57 55 49 46 43 45 43 43

GFSSE_925_rhum_249.txt.gz
RH
58 47 38 45 52 58 58 57 38 46 48 40 41 53 67 72 74 74 77 73 66 78 76 60 54 53 48 45 42 55 64 69 59 52 51 51 60 68 73 72 66 69 64
41 46 42 48 55 59 59 59 38 46 54 47 46 54 65 67 67 64 60 61 87 63 54 56 55 55 51 50 46 48 58 65 72 58 62 43 46 50 63 65 67 71 70
39 44 48 52 56 60 60 58 38 50 56 51 47 55 63 63 58 53 57 58 59 60 53 57 56 54 52 48 46 45 52 61 68 73 72 76 43 40 44 55 63 79 71
35 42 52 56 57 59 62 54 41 50 52 46 47 58 58 59 55 54 54 60 62 59 59 59 56 57 56 50 45 44 47 52 57 62 68 72 59 29 47 59 62 69 79
38 44 54 56 56 60 62 47 45 48 49 45 52 58 57 60 57 54 55 68 69 63 56 56 54 53 53 52 47 42 48 52 52 56 64 66 53 33 27 51 52 51 56
42 44 52 53 52 57 56 47 50 44 46 48 53 57 59 57 56 54 56 64 83 76 61 55 54 55 55 54 52 46 41 42 52 55 61 61 53 46 34 33 41 48 49
51 43 45 48 48 50 50 48 50 42 45 51 56 60 55 53 53 55 65 67 79 74 59 50 50 52 53 50 48 42 37 39 50 51 59 61 58 52 42 38 39 44 48
54 42 42 44 44 44 45 46 52 43 42 45 51 52 55 53 50 53 60 63 69 65 53 48 47 48 48 46 44 43 40 37 36 51 56 61 58 54 52 45 44 47 49
53 42 43 44 45 45 44 47 45 44 45 47 49 49 49 50 47 46 49 51 52 50 47 44 44 44 46 49 49 52 51 46 50 53 65 64 55 54 53 50 47 52 57
55 46 43 45 47 49 49 45 42 46 49 50 49 49 49 46 44 42 42 42 42 43 44 46 44 41 41 42 56 64 65 48 60 60 62 61 52 51 54 57 54 55 60
66 54 44 46 48 48 47 45 46 49 52 55 55 54 52 49 48 44 40 38 42 38 39 40 38 39 44 48 52 67 67 68 66 67 63 56 54 58 61 62 60 60 60
76 68 50 50 49 50 50 50 52 55 57 59 60 60 57 57 60 55 60 62 58 42 40 38 39 42 48 58 74 69 73 72 69 70 71 66 63 70 72 73 74 74 69
77 74 63 63 58 59 62 57 59 61 62 64 64 63 58 68 79 78 73 70 56 51 52 44 60 64 70 74 73 77 77 72 70 69 70 70 73 70 71 68 68 73 76
80 79 78 74 72 70 79 70 59 64 66 67 67 68 72 67 85 72 71 67 64 65 66 68 71 71 75 78 76 73 74 75 71 70 65 67 69 63 61 59 65 66 68
70 80 80 80 79 74 84 76 71 66 73 71 73 74 77 73 73 68 68 71 70 73 73 75 77 77 77 72 71 67 66 65 64 58 54 59 64 62 55 59 72 73 78
66 69 77 82 79 72 82 83 78 76 78 76 80 84 80 73 62 66 72 70 75 77 77 76 72 77 71 66 64 65 63 68 67 62 53 45 42 43 44 50 68 79 77
61 66 68 75 82 73 77 84 81 77 79 75 73 78 77 66 70 70 70 72 72 72 75 77 72 70 70 50 57 47 47 42 38 39 38 36 41 43 39 46 59 48 58
57 66 66 69 77 79 84 83 83 83 79 73 70 76 76 69 71 70 70 72 75 73 75 77 56 46 46 45 44 44 42 40 37 36 31 44 37 35 40 49 46 46 45
56 67 70 71 75 82 86 84 79 78 79 75 67 76 75 70 70 72 78 77 76 76 65 47 46 48 49 47 46 45 39 33 30 31 33 31 34 35 36 38 33 34 39
58 64 71 74 74 77 85 88 86 75 69 73 75 74 76 76 73 78 78 76 62 54 48 48 48 48 45 40 39 36 27 27 33 28 29 31 32 32 34 35 31 30 30
65 72 78 86 81 83 93 90 84 78 78 80 76 78 76 73 79 77 74 59 49 47 51 52 48 41 35 31 29 28 24 34 35 29 30 31 33 30 29 30 32 32 33
63 71 78 86 84 85 92 89 82 86 84 82 85 84 80 84 75 62 60 43 48 51 54 49 33 33 35 34 33 38 55 42 34 30 33 33 35 35 35 34 35 37 35
62 73 79 83 83 86 87 88 83 83 88 92 90 86 83 72 56 46 46 46 57 54 49 40 37 36 36 36 37 40 55 60 57 38 38 40 40 41 41 40 36 35 39
59 71 76 78 85 86 84 86 85 90 92 90 86 79 67 55 45 44 46 48 41 48 38 37 39 37 39 43 41 43 46 51 65 74 46 44 45 46 44 44 45 44 39
56 69 74 77 85 87 84 82 86 91 88 85 82 68 54 50 48 48 49 41 38 39 37 40 44 44 44 48 50 51 53 53 52 66 76 62 51 49 49 48 48 47 46
50 65 71 80 87 89 85 83 83 86 80 76 69 55 52 51 52 49 46 42 38 39 40 42 46 48 51 51 53 59 58 64 66 68 79 71 68 57 55 53 52 50 52

GFSSE_925_rhum_252.txt.gz
RH
59 49 47 47 52 54 53 37 46 36 34 41 52 53 54 58 61 62 56 52 55 61 58 52 46 44 46 57 63 70 68 52 53 54 61 80 82 73 65 56 62 60 68
46 48 49 46 53 56 55 39 49 41 36 44 55 58 61 61 62 58 50 55 52 61 54 54 49 47 47 52 57 63 68 72 64 74 58 44 50 55 57 60 74 64 63
41 44 53 49 55 57 57 40 52 48 39 46 57 62 61 57 53 50 47 50 51 54 54 54 51 48 47 48 51 56 60 63 68 72 74 57 43 43 42 55 67 71 65
36 47 55 51 57 57 58 41 55 52 41 45 55 60 59 52 49 49 48 53 53 50 51 54 55 50 45 43 45 50 56 59 60 66 68 68 44 32 31 37 45 54 59
44 49 52 54 57 58 57 42 55 54 45 48 56 56 55 50 49 49 51 53 54 51 47 50 50 50 47 45 46 48 50 50 61 62 61 68 57 34 30 29 31 38 43
50 54 51 55 57 60 55 44 54 52 44 46 50 50 52 53 53 52 58 70 59 50 49 49 50 49 47 44 41 40 41 45 52 61 61 66 54 42 38 37 38 40 43
54 48 53 55 58 60 50 47 53 47 40 41 46 44 45 54 56 56 61 74 70 51 48 47 47 45 44 41 38 38 39 41 45 51 60 64 57 51 47 44 42 42 45
42 48 55 57 58 58 49 50 46 44 40 40 40 42 41 43 51 60 62 65 62 60 48 46 44 45 43 44 46 47 47 42 51 59 62 63 62 56 54 51 48 47 48
40 46 55 61 60 56 51 52 43 41 42 42 40 39 41 42 44 49 53 53 51 48 50 47 43 43 42 44 55 61 55 51 62 65 68 68 62 61 57 58 57 55 55
42 42 51 58 60 59 58 52 42 43 42 41 42 41 41 42 43 42 39 37 37 38 40 38 39 41 39 40 60 67 66 66 66 72 68 60 66 62 62 65 66 66 63
51 43 45 52 59 58 56 52 44 45 46 46 46 46 46 45 44 41 37 34 39 37 37 37 39 40 42 59 63 69 70 70 69 70 72 64 60 64 71 74 75 75 75
63 52 47 49 54 58 58 51 46 48 51 51 52 51 50 49 50 48 52 53 58 50 42 40 41 46 58 71 68 68 72 71 70 71 73 72 67 74 70 68 65 64 72
61 54 52 50 52 56 54 48 50 51 53 56 58 56 56 55 62 67 68 68 63 56 52 46 56 61 68 74 70 75 73 70 67 67 67 67 71 71 67 63 67 71 76
74 61 52 51 51 52 49 49 52 56 57 58 59 61 62 62 72 74 70 70 67 61 61 59 61 71 74 80 78 73 63 63 66 68 60 59 62 63 68 59 73 85 84
83 76 63 54 53 53 54 54 55 56 58 58 60 62 65 63 71 80 72 70 68 66 68 73 75 76 78 79 73 70 60 68 65 64 53 56 46 48 44 47 66 80 83
80 76 72 58 59 60 64 63 59 59 58 60 61 64 69 72 77 79 74 74 78 73 75 78 77 77 78 73 73 76 72 74 44 41 38 42 44 43 45 56 53 54 57
70 71 71 70 64 66 70 72 74 69 63 65 67 68 74 78 82 77 78 76 71 75 78 79 80 78 76 49 51 43 43 40 38 35 35 41 37 44 48 48 49 45 44
69 79 78 79 74 70 72 77 82 78 73 73 72 72 80 82 83 73 72 73 75 76 77 76 75 65 48 46 46 45 38 35 32 31 34 36 36 38 40 38 38 36 35
64 70 81 82 81 76 81 80 84 84 79 76 74 74 78 82 83 74 70 68 74 76 78 74 50 47 48 47 44 43 39 27 30 30 32 33 34 32 30 30 31 31 31
60 66 71 81 90 88 86 86 86 80 82 80 76 76 73 81 80 72 68 74 78 75 74 51 47 48 45 40 36 34 22 31 30 28 30 34 32 32 33 34 35 36 36
55 69 75 79 89 96 94 91 91 87 84 82 78 73 72 83 77 72 70 80 80 77 54 50 48 42 36 32 28 24 30 39 33 28 31 32 35 36 36 39 38 35 34
52 64 76 78 89 93 94 92 91 89 84 81 80 79 78 80 76 75 76 79 60 55 52 49 45 37 36 34 31 40 55 39 40 32 36 40 40 40 38 38 32 39 45
53 66 74 79 83 89 92 95 94 93 88 84 82 85 82 78 78 78 77 67 52 50 50 47 29 26 34 40 36 36 51 52 61 41 40 42 44 47 44 45 46 48 44
55 67 72 83 86 86 88 92 95 90 95 90 97 90 86 84 84 78 67 54 50 51 49 38 30 27 23 37 43 43 44 49 65 71 53 47 52 52 51 51 52 50 50
56 68 73 84 92 90 91 90 95 89 90 91 100 92 88 86 71 58 53 48 55 53 44 34 36 32 35 37 42 49 52 57 59 71 80 66 51 54 51 54 51 51 58
59 68 76 84 93 94 93 91 92 87 93 98 96 90 86 72 52 50 49 47 49 46 38 36 36 36 38 46 50 56 58 62 68 71 86 80 73 61 57 53 58 60 61